STARLINK-3342 (50816 NORAD) Tracking and Keplerian Element Data

This shows tracking and keplerian element data for the satellite.

Feedback or suggestion? Click here.




ElementValue
Catalog50816
NameSTARLINK-3342
Epoch Orbit383
Epoch Day22.91667824
Epoch Year2022
RAAN119.7719
Inclination53.2175
Eccentricity0.0001043
Argument of Perigee88.0494
Mean Anonmoly221.4733
Mean Motion15.7517755
Decay Rate-0.00820909
L11 50816U 22001P 22022.91667824 -.00820909 00000+0 -59088-2 0 9997
L22 50816 53.2175 119.7719 0001043 88.0494 221.4733 15.75177550 3830

Live tracking and technical data element details for STARLINK-3342 (NORAD 50816). STARLINK-3342 can be tracked NOW for your location showing map with azimuth and elevation plus other details from your city location.

Track the satellite on the map from your city or location and see movement details for azimuth, elevation, latitude, longitude, range, height, and movement on the map or in text.







IsCatalogInMostPopularTable: catalog: 50816, numindb: 1
Update: records affected: 1



GetName: 50816 STARLINK-3342

Hit Count: updated at: Mon, 24 Jan 2022 00:50:55 GMT